Time,TemperatureF,DewpointF,PressureIn,WindDirection,WindDirectionDegrees,WindSpeedMPH,WindSpeedGustMPH,Humidity,HourlyPrecipIn,Conditions,Clouds,dailyrainin,SoftwareType,DateUTC
2013-03-10 00:01:00,39.1,36.8,30.42,North,-999,0.0,0.0,91,0.00,,,0.00,ow4j130224,2013-03-10 08:01:00,
2013-03-10 00:06:00,39.3,36.8,30.42,North,-999,0.0,0.0,91,0.00,,,0.00,ow4j130224,2013-03-10 08:06:00,
2013-03-10 00:11:00,39.4,36.7,30.42,North,-999,0.0,0.0,90,0.00,,,0.00,ow4j130224,2013-03-10 08:11:00,
2013-03-10 00:16:00,39.6,36.5,30.42,North,-999,0.0,0.0,89,0.00,,,0.00,ow4j130224,2013-03-10 08:16:00,
2013-03-10 00:21:00,39.7,36.6,30.42,North,-999,0.0,0.0,89,0.00,,,0.00,ow4j130224,2013-03-10 08:21:00,
2013-03-10 00:26:00,39.7,36.5,30.42,North,-999,0.0,0.0,88,0.00,,,0.00,ow4j130224,2013-03-10 08:26:00,
2013-03-10 00:31:00,39.3,35.9,30.42,North,-999,0.0,0.0,87,0.00,,,0.00,ow4j130224,2013-03-10 08:31:00,
2013-03-10 00:36:00,39.3,35.8,30.42,North,-999,0.0,0.0,87,0.00,,,0.00,ow4j130224,2013-03-10 08:36:00,
2013-03-10 00:41:00,39.3,35.8,30.42,North,-999,0.0,0.0,87,0.00,,,0.00,ow4j130224,2013-03-10 08:41:00,
2013-03-10 00:46:00,39.4,36.1,30.42,North,-999,0.0,0.0,88,0.00,,,0.00,ow4j130224,2013-03-10 08:46:00,
2013-03-10 00:51:00,39.4,36.3,30.42,North,-999,0.0,0.0,88,0.00,,,0.00,ow4j130224,2013-03-10 08:51:00,
2013-03-10 00:56:00,39.1,35.9,30.42,North,-999,0.0,0.0,88,0.00,,,0.00,ow4j130224,2013-03-10 08:56:00,
2013-03-10 01:01:00,39.2,36.0,30.42,North,-999,0.0,0.0,88,0.00,,,0.00,ow4j130224,2013-03-10 09:01:00,
2013-03-10 01:06:00,39.3,36.0,30.42,North,-999,0.0,0.0,88,0.00,,,0.00,ow4j130224,2013-03-10 09:06:00,
2013-03-10 01:11:00,39.3,35.7,30.42,North,-999,0.0,0.0,87,0.00,,,0.00,ow4j130224,2013-03-10 09:11:00,
2013-03-10 01:16:00,39.3,35.8,30.42,North,-999,0.0,0.0,87,0.00,,,0.00,ow4j130224,2013-03-10 09:16:00,
2013-03-10 01:21:00,39.3,35.9,30.42,North,-999,0.0,0.0,87,0.00,,,0.00,ow4j130224,2013-03-10 09:21:00,
2013-03-10 01:26:00,39.4,36.0,30.42,North,-999,0.0,0.0,88,0.00,,,0.00,ow4j130224,2013-03-10 09:26:00,
2013-03-10 01:31:00,39.7,36.4,30.42,North,-999,0.0,0.0,88,0.00,,,0.00,ow4j130224,2013-03-10 09:31:00,
2013-03-10 01:36:00,39.7,36.4,30.42,North,-999,0.0,0.0,88,0.00,,,0.00,ow4j130224,2013-03-10 09:36:00,
2013-03-10 01:41:00,39.4,36.0,30.42,North,-999,0.0,0.0,87,0.00,,,0.00,ow4j130224,2013-03-10 09:41:00,
2013-03-10 01:46:00,39.4,36.0,30.42,North,-999,0.0,0.0,87,0.00,,,0.00,ow4j130224,2013-03-10 09:46:00,
2013-03-10 01:51:00,39.4,36.1,30.43,North,-999,0.0,0.0,88,0.00,,,0.00,ow4j130224,2013-03-10 09:51:00,
2013-03-10 01:56:00,39.4,36.2,30.43,North,-999,0.0,0.0,88,0.00,,,0.00,ow4j130224,2013-03-10 09:56:00,
2013-03-10 03:01:00,39.4,36.2,30.43,North,-999,0.0,0.0,88,0.00,,,0.00,ow4j130224,2013-03-10 10:01:00,
2013-03-10 03:06:00,39.4,36.1,30.43,North,-999,0.0,0.0,88,0.00,,,0.00,ow4j130224,2013-03-10 10:06:00,
2013-03-10 03:11:00,39.4,36.2,30.43,North,-999,0.0,0.0,88,0.00,,,0.00,ow4j130224,2013-03-10 10:11:00,
2013-03-10 03:16:00,39.4,36.2,30.42,North,-999,0.0,0.0,88,0.00,,,0.00,ow4j130224,2013-03-10 10:16:00,
2013-03-10 03:21:00,39.4,36.1,30.42,North,-999,0.0,0.0,88,0.00,,,0.00,ow4j130224,2013-03-10 10:21:00,
2013-03-10 03:26:00,39.3,36.1,30.42,North,-999,0.0,0.0,88,0.00,,,0.00,ow4j130224,2013-03-10 10:26:00,
2013-03-10 03:31:00,39.5,36.2,30.42,North,-999,0.0,0.0,88,0.00,,,0.00,ow4j130224,2013-03-10 10:31:00,
2013-03-10 03:36:00,39.8,36.4,30.42,North,-999,0.0,0.0,88,0.00,,,0.00,ow4j130224,2013-03-10 10:36:00,
2013-03-10 03:41:00,39.8,36.3,30.42,North,-999,0.0,0.0,87,0.00,,,0.00,ow4j130224,2013-03-10 10:41:00,
2013-03-10 03:46:00,39.7,36.1,30.42,North,-999,0.0,0.0,87,0.00,,,0.00,ow4j130224,2013-03-10 10:46:00,
2013-03-10 03:51:00,39.7,35.9,30.42,North,-999,0.0,0.0,86,0.00,,,0.00,ow4j130224,2013-03-10 10:51:00,
2013-03-10 03:56:00,39.9,36.1,30.42,North,-999,0.0,0.0,86,0.00,,,0.00,ow4j130224,2013-03-10 10:56:00,
2013-03-10 04:01:00,40.0,36.3,30.42,North,-999,0.0,0.0,87,0.00,,,0.00,ow4j130224,2013-03-10 11:01:00,
2013-03-10 04:06:00,40.0,36.4,30.42,North,-999,0.0,0.0,87,0.00,,,0.00,ow4j130224,2013-03-10 11:06:00,
2013-03-10 04:11:00,40.0,36.5,30.42,North,-999,0.0,0.0,87,0.00,,,0.00,ow4j130224,2013-03-10 11:11:00,
2013-03-10 04:16:00,39.7,36.3,30.41,North,-999,0.0,0.0,87,0.00,,,0.00,ow4j130224,2013-03-10 11:16:00,
2013-03-10 04:21:00,39.5,36.1,30.41,North,-999,0.0,0.0,88,0.00,,,0.00,ow4j130224,2013-03-10 11:21:00,
2013-03-10 04:26:00,39.3,36.1,30.41,North,-999,0.0,0.0,88,0.00,,,0.00,ow4j130224,2013-03-10 11:26:00,
2013-03-10 04:31:00,39.3,36.2,30.41,North,-999,0.0,0.0,88,0.00,,,0.00,ow4j130224,2013-03-10 11:31:00,
2013-03-10 04:36:00,39.3,36.2,30.42,North,-999,0.0,0.0,88,0.00,,,0.00,ow4j130224,2013-03-10 11:36:00,
2013-03-10 04:41:00,39.4,36.3,30.42,North,-999,0.0,0.0,89,0.00,,,0.00,ow4j130224,2013-03-10 11:41:00,
2013-03-10 04:46:00,39.5,36.5,30.42,North,-999,0.0,0.0,89,0.00,,,0.00,ow4j130224,2013-03-10 11:46:00,
2013-03-10 04:51:00,39.5,36.5,30.42,North,-999,0.0,0.0,89,0.00,,,0.00,ow4j130224,2013-03-10 11:51:00,
2013-03-10 04:56:00,39.4,36.3,30.42,North,-999,0.0,0.0,89,0.00,,,0.00,ow4j130224,2013-03-10 11:56:00,
2013-03-10 05:01:00,39.4,36.4,30.42,North,-999,0.0,0.0,89,0.00,,,0.00,ow4j130224,2013-03-10 12:01:00,
2013-03-10 05:06:00,39.5,36.5,30.42,North,-999,0.0,0.0,89,0.00,,,0.00,ow4j130224,2013-03-10 12:06:00,
2013-03-10 05:11:00,39.5,36.4,30.42,North,-999,0.2,1.6,89,0.00,,,0.00,ow4j130224,2013-03-10 12:11:00,
2013-03-10 05:16:00,39.5,36.6,30.43,North,-999,0.0,0.0,89,0.00,,,0.00,ow4j130224,2013-03-10 12:16:00,
2013-03-10 05:22:00,39.7,36.8,30.42,North,-999,0.0,0.0,89,0.00,,,0.00,ow4j130224,2013-03-10 12:22:00,
2013-03-10 05:27:00,39.8,36.9,30.42,North,-999,0.0,0.0,89,0.00,,,0.00,ow4j130224,2013-03-10 12:27:00,
2013-03-10 05:32:00,39.9,37.0,30.42,SSE,150,1.3,2.5,89,0.00,,,0.00,ow4j130224,2013-03-10 12:32:00,
2013-03-10 05:37:00,39.9,37.0,30.42,North,-999,0.0,0.0,89,0.00,,,0.00,ow4j130224,2013-03-10 12:37:00,
2013-03-10 05:42:00,39.9,37.0,30.42,North,-999,0.0,0.0,89,0.00,,,0.00,ow4j130224,2013-03-10 12:42:00,
2013-03-10 05:47:00,39.8,36.8,30.42,North,-999,0.0,0.0,89,0.00,,,0.00,ow4j130224,2013-03-10 12:47:00,
2013-03-10 05:52:00,39.9,36.8,30.42,North,-999,0.8,3.3,89,0.00,,,0.00,ow4j130224,2013-03-10 12:52:00,
2013-03-10 05:57:00,39.9,36.9,30.42,North,-999,0.0,0.0,89,0.00,,,0.00,ow4j130224,2013-03-10 12:57:00,
2013-03-10 06:02:00,39.7,36.8,30.41,North,-999,0.0,0.0,89,0.00,,,0.00,ow4j130224,2013-03-10 13:02:00,
2013-03-10 06:07:00,39.7,36.8,30.41,North,-999,0.0,0.0,89,0.00,,,0.00,ow4j130224,2013-03-10 13:07:00,
2013-03-10 06:12:00,39.6,36.5,30.41,North,-999,0.2,0.8,89,0.00,,,0.00,ow4j130224,2013-03-10 13:12:00,
2013-03-10 06:17:00,39.7,36.5,30.41,North,-999,0.0,0.0,88,0.00,,,0.00,ow4j130224,2013-03-10 13:17:00,
2013-03-10 06:22:00,39.8,36.6,30.41,North,-999,0.3,1.6,88,0.00,,,0.00,ow4j130224,2013-03-10 13:22:00,
2013-03-10 06:27:00,40.0,36.7,30.41,North,-999,0.3,1.6,88,0.00,,,0.00,ow4j130224,2013-03-10 13:27:00,
2013-03-10 06:32:00,39.9,36.6,30.41,North,-999,0.0,0.0,88,0.00,,,0.00,ow4j130224,2013-03-10 13:32:00,
2013-03-10 06:37:00,39.9,36.6,30.40,North,-999,0.0,0.0,88,0.00,,,0.00,ow4j130224,2013-03-10 13:37:00,
2013-03-10 06:42:00,40.0,36.8,30.40,North,-999,0.0,0.0,88,0.00,,,0.00,ow4j130224,2013-03-10 13:42:00,
2013-03-10 06:47:00,39.9,36.7,30.40,North,-999,0.0,0.0,88,0.00,,,0.00,ow4j130224,2013-03-10 13:47:00,
2013-03-10 06:52:00,39.7,36.4,30.40,North,-999,0.0,0.0,88,0.00,,,0.00,ow4j130224,2013-03-10 13:52:00,
2013-03-10 06:57:00,39.5,36.2,30.40,SE,136,3.4,7.4,88,0.00,,,0.00,ow4j130224,2013-03-10 13:57:00,
2013-03-10 07:02:00,39.7,36.5,30.40,SE,142,1.7,4.1,88,0.00,,,0.00,ow4j130224,2013-03-10 14:02:00,
2013-03-10 07:07:00,39.9,36.7,30.40,North,-999,0.6,2.5,88,0.00,,,0.00,ow4j130224,2013-03-10 14:07:00,
2013-03-10 07:12:00,40.0,36.5,30.40,SW,223,2.7,4.9,87,0.00,,,0.00,ow4j130224,2013-03-10 14:12:00,
2013-03-10 07:17:00,40.0,36.8,30.39,SW,229,3.5,4.9,88,0.00,,,0.00,ow4j130224,2013-03-10 14:17:00,
2013-03-10 07:22:00,40.2,37.1,30.39,SW,225,4.0,8.3,88,0.00,,,0.00,ow4j130224,2013-03-10 14:22:00,
2013-03-10 07:27:00,40.4,37.2,30.39,SSW,209,3.4,6.5,88,0.00,,,0.00,ow4j130224,2013-03-10 14:27:00,
2013-03-10 07:32:00,40.4,37.2,30.39,SSW,213,3.0,6.5,88,0.00,,,0.00,ow4j130224,2013-03-10 14:32:00,
2013-03-10 07:37:00,40.6,37.4,30.39,SSW,193,1.9,4.2,88,0.00,,,0.00,ow4j130224,2013-03-10 14:37:00,
2013-03-10 07:42:00,40.8,37.6,30.39,South,191,2.6,5.7,88,0.00,,,0.00,ow4j130224,2013-03-10 14:42:00,
2013-03-10 07:47:00,40.8,37.7,30.39,SW,217,4.3,7.4,89,0.00,,,0.00,ow4j130224,2013-03-10 14:47:00,
2013-03-10 07:52:00,40.8,37.8,30.39,SSW,210,5.1,8.2,89,0.00,,,0.00,ow4j130224,2013-03-10 14:52:00,
2013-03-10 07:57:00,40.9,37.9,30.39,South,191,3.2,7.4,89,0.00,,,0.00,ow4j130224,2013-03-10 14:57:00,
2013-03-10 08:02:00,40.7,37.7,30.39,South,185,3.7,8.2,89,0.00,,,0.00,ow4j130224,2013-03-10 15:02:00,
2013-03-10 08:07:00,41.4,38.5,30.39,SSW,198,2.1,4.9,89,0.00,,,0.00,ow4j130224,2013-03-10 15:07:00,
2013-03-10 08:12:00,41.5,38.6,30.40,South,186,4.2,13.1,89,0.00,,,0.00,ow4j130224,2013-03-10 15:12:00,
2013-03-10 08:17:00,41.9,39.0,30.40,SSW,193,4.7,8.2,89,0.00,,,0.00,ow4j130224,2013-03-10 15:17:00,
2013-03-10 08:22:00,41.8,38.9,30.39,SSW,204,7.1,10.6,89,0.00,,,0.00,ow4j130224,2013-03-10 15:22:00,
2013-03-10 08:27:00,41.7,38.7,30.40,SSW,201,4.6,6.6,89,0.00,,,0.00,ow4j130224,2013-03-10 15:27:00,
2013-03-10 08:32:00,41.9,38.8,30.40,South,177,4.9,9.8,89,0.00,,,0.00,ow4j130224,2013-03-10 15:32:00,
2013-03-10 08:37:00,42.2,39.1,30.40,South,183,2.0,4.2,89,0.00,,,0.00,ow4j130224,2013-03-10 15:37:00,
2013-03-10 08:42:00,42.3,39.1,30.40,South,181,5.6,10.6,88,0.00,,,0.00,ow4j130224,2013-03-10 15:42:00,
2013-03-10 08:47:00,42.3,39.0,30.40,SSW,200,5.7,9.8,88,0.00,,,0.00,ow4j130224,2013-03-10 15:47:00,
2013-03-10 08:52:00,42.3,38.9,30.40,SW,214,3.4,4.9,88,0.00,,,0.00,ow4j130224,2013-03-10 15:52:00,
2013-03-10 08:57:00,42.3,38.9,30.40,SSW,205,3.5,9.0,88,0.00,,,0.00,ow4j130224,2013-03-10 15:57:00,
2013-03-10 09:02:00,42.5,39.1,30.41,South,191,3.3,5.7,88,0.00,,,0.00,ow4j130224,2013-03-10 16:02:00,
2013-03-10 09:07:00,42.7,39.2,30.40,SSW,192,3.9,8.2,87,0.00,,,0.00,ow4j130224,2013-03-10 16:07:00,
2013-03-10 09:12:00,42.9,39.1,30.40,SSW,211,4.0,8.0,86,0.00,,,0.00,ow4j130224,2013-03-10 16:12:00,
2013-03-10 09:18:00,43.0,39.1,30.40,SSW,203,4.9,9.8,86,0.00,,,0.00,ow4j130224,2013-03-10 16:18:00,
2013-03-10 09:23:00,43.1,39.1,30.40,South,175,2.2,5.7,86,0.00,,,0.00,ow4j130224,2013-03-10 16:23:00,
2013-03-10 09:28:00,43.2,39.1,30.41,SSW,207,4.7,7.6,85,0.00,,,0.00,ow4j130224,2013-03-10 16:28:00,
2013-03-10 09:33:00,43.1,39.0,30.41,South,185,4.9,7.4,85,0.00,,,0.00,ow4j130224,2013-03-10 16:33:00,
2013-03-10 09:38:00,43.0,38.9,30.41,South,183,2.5,5.7,85,0.00,,,0.00,ow4j130224,2013-03-10 16:38:00,
2013-03-10 09:43:00,43.1,38.9,30.41,South,191,3.9,6.5,85,0.00,,,0.00,ow4j130224,2013-03-10 16:43:00,
2013-03-10 09:48:00,43.0,38.9,30.41,SSW,206,3.9,7.4,85,0.00,,,0.00,ow4j130224,2013-03-10 16:48:00,
2013-03-10 09:53:00,42.9,38.6,30.41,SSW,213,5.9,10.6,85,0.00,,,0.00,ow4j130224,2013-03-10 16:53:00,
2013-03-10 09:58:00,42.9,38.6,30.41,SW,215,6.0,9.0,84,0.00,,,0.00,ow4j130224,2013-03-10 16:58:00,
2013-03-10 10:03:00,43.1,38.7,30.41,South,177,3.2,6.5,84,0.00,,,0.00,ow4j130224,2013-03-10 17:03:00,
2013-03-10 10:08:00,43.3,38.8,30.41,South,181,4.1,8.2,84,0.00,,,0.00,ow4j130224,2013-03-10 17:08:00,
2013-03-10 10:13:00,43.3,38.9,30.41,South,178,3.1,4.9,84,0.00,,,0.00,ow4j130224,2013-03-10 17:13:00,
2013-03-10 10:18:00,43.4,38.8,30.41,South,178,3.8,6.7,84,0.00,,,0.00,ow4j130224,2013-03-10 17:18:00,
2013-03-10 10:23:00,43.6,38.8,30.41,SSE,165,1.6,4.1,83,0.00,,,0.00,ow4j130224,2013-03-10 17:23:00,
2013-03-10 10:28:00,43.7,39.0,30.41,South,178,2.6,6.5,83,0.00,,,0.00,ow4j130224,2013-03-10 17:28:00,
2013-03-10 10:33:00,44.0,39.0,30.41,South,182,3.7,6.5,82,0.00,,,0.00,ow4j130224,2013-03-10 17:33:00,
2013-03-10 10:38:00,44.1,38.9,30.41,SW,221,4.3,9.3,82,0.00,,,0.00,ow4j130224,2013-03-10 17:38:00,
2013-03-10 10:43:00,44.2,38.9,30.41,SSW,198,5.1,10.6,82,0.00,,,0.00,ow4j130224,2013-03-10 17:43:00,
2013-03-10 10:48:00,44.3,39.1,30.41,South,180,1.9,4.9,82,0.00,,,0.00,ow4j130224,2013-03-10 17:48:00,
2013-03-10 10:53:00,44.4,39.2,30.41,SSW,212,4.8,8.2,82,0.00,,,0.00,ow4j130224,2013-03-10 17:53:00,
2013-03-10 10:58:00,44.3,38.9,30.41,South,176,5.5,12.3,81,0.00,,,0.00,ow4j130224,2013-03-10 17:58:00,
2013-03-10 11:03:00,44.1,38.6,30.40,SSE,165,2.4,6.5,81,0.00,,,0.00,ow4j130224,2013-03-10 18:03:00,
2013-03-10 11:08:00,44.0,38.6,30.40,SSE,165,4.8,8.2,81,0.00,,,0.00,ow4j130224,2013-03-10 18:08:00,
2013-03-10 11:13:00,44.3,39.0,30.40,South,177,3.9,7.4,81,0.00,,,0.00,ow4j130224,2013-03-10 18:13:00,
2013-03-10 11:18:00,44.5,39.1,30.40,SSE,164,4.8,9.8,81,0.00,,,0.00,ow4j130224,2013-03-10 18:18:00,
2013-03-10 11:23:00,44.7,39.2,30.40,SSW,201,6.0,11.5,81,0.00,,,0.00,ow4j130224,2013-03-10 18:23:00,
2013-03-10 11:28:00,44.7,39.1,30.40,South,181,5.0,10.6,80,0.00,,,0.00,ow4j130224,2013-03-10 18:28:00,
2013-03-10 11:33:00,44.8,39.2,30.40,South,178,3.6,7.4,81,0.00,,,0.00,ow4j130224,2013-03-10 18:33:00,
2013-03-10 11:38:00,45.4,39.6,30.40,South,181,3.5,9.0,80,0.00,,,0.00,ow4j130224,2013-03-10 18:38:00,
2013-03-10 11:43:00,45.4,39.4,30.39,South,190,3.6,6.5,80,0.00,,,0.00,ow4j130224,2013-03-10 18:43:00,
2013-03-10 11:48:00,45.1,38.9,30.39,SSE,167,5.0,10.7,79,0.00,,,0.00,ow4j130224,2013-03-10 18:48:00,
2013-03-10 11:53:00,45.5,39.4,30.39,SSW,194,3.5,7.4,79,0.00,,,0.00,ow4j130224,2013-03-10 18:53:00,
2013-03-10 11:58:00,45.8,39.8,30.40,SSW,206,5.2,8.2,79,0.00,,,0.00,ow4j130224,2013-03-10 18:58:00,
2013-03-10 12:03:00,45.7,39.6,30.40,South,187,3.8,8.2,79,0.00,,,0.00,ow4j130224,2013-03-10 19:03:00,
2013-03-10 12:08:00,45.3,39.2,30.40,South,182,3.6,6.5,79,0.00,,,0.00,ow4j130224,2013-03-10 19:08:00,
2013-03-10 12:13:00,45.0,39.0,30.40,South,190,4.0,8.2,79,0.00,,,0.00,ow4j130224,2013-03-10 19:13:00,
2013-03-10 12:18:00,45.1,39.3,30.40,South,182,7.4,12.7,80,0.00,,,0.00,ow4j130224,2013-03-10 19:18:00,
2013-03-10 12:23:00,45.2,39.5,30.40,South,180,7.9,14.7,80,0.00,,,0.00,ow4j130224,2013-03-10 19:23:00,
2013-03-10 12:28:00,44.8,39.3,30.40,South,186,5.7,11.4,81,0.00,,,0.00,ow4j130224,2013-03-10 19:28:00,
2013-03-10 12:33:00,44.7,39.3,30.40,South,170,4.5,7.3,81,0.00,,,0.00,ow4j130224,2013-03-10 19:33:00,
2013-03-10 12:38:00,44.8,39.4,30.40,South,170,6.3,10.6,81,0.00,,,0.00,ow4j130224,2013-03-10 19:38:00,
2013-03-10 12:43:00,44.9,39.4,30.40,South,170,7.3,10.6,81,0.00,,,0.00,ow4j130224,2013-03-10 19:43:00,
2013-03-10 12:48:00,45.0,39.3,30.40,South,183,4.5,8.2,80,0.00,,,0.00,ow4j130224,2013-03-10 19:48:00,
2013-03-10 12:53:00,45.2,39.5,30.40,South,182,4.3,7.4,80,0.00,,,0.00,ow4j130224,2013-03-10 19:53:00,
2013-03-10 12:58:00,45.2,39.5,30.40,South,176,5.7,8.9,80,0.00,,,0.00,ow4j130224,2013-03-10 19:58:00,
2013-03-10 13:04:00,45.1,39.4,30.40,SE,143,6.3,11.4,80,0.00,,,0.00,ow4j130224,2013-03-10 20:04:00,
2013-03-10 13:09:00,44.5,39.1,30.39,SE,142,5.2,8.2,81,0.00,,,0.00,ow4j130224,2013-03-10 20:09:00,
2013-03-10 13:14:00,44.3,39.3,30.39,SE,146,2.5,5.0,82,0.00,,,0.00,ow4j130224,2013-03-10 20:14:00,
2013-03-10 13:19:00,44.1,39.2,30.39,SSE,166,2.3,4.1,83,0.00,,,0.00,ow4j130224,2013-03-10 20:19:00,
2013-03-10 13:24:00,44.1,39.2,30.39,South,185,3.1,5.7,83,0.00,,,0.00,ow4j130224,2013-03-10 20:24:00,
2013-03-10 13:29:00,44.3,39.5,30.39,South,188,3.6,8.2,83,0.00,,,0.00,ow4j130224,2013-03-10 20:29:00,
2013-03-10 13:34:00,44.4,39.4,30.39,SSE,166,4.8,8.2,82,0.00,,,0.00,ow4j130224,2013-03-10 20:34:00,
2013-03-10 13:39:00,44.4,39.3,30.39,South,172,4.5,8.2,82,0.00,,,0.00,ow4j130224,2013-03-10 20:39:00,
2013-03-10 13:44:00,44.6,39.6,30.39,South,182,4.4,6.6,83,0.00,,,0.00,ow4j130224,2013-03-10 20:44:00,
2013-03-10 13:49:00,44.6,39.6,30.39,SSE,168,4.4,8.4,83,0.00,,,0.00,ow4j130224,2013-03-10 20:49:00,
2013-03-10 13:54:00,44.6,39.5,30.39,SSE,150,5.4,9.8,82,0.00,,,0.00,ow4j130224,2013-03-10 20:54:00,
2013-03-10 13:59:00,44.4,39.5,30.39,SSE,152,4.9,7.4,83,0.00,,,0.00,ow4j130224,2013-03-10 20:59:00,
2013-03-10 14:04:00,44.5,39.6,30.39,SSW,199,3.6,5.8,83,0.00,,,0.00,ow4j130224,2013-03-10 21:04:00,
2013-03-10 14:09:00,44.6,39.9,30.39,SSE,167,4.8,7.4,83,0.00,,,0.00,ow4j130224,2013-03-10 21:09:00,
2013-03-10 14:14:00,44.5,39.7,30.39,SE,139,4.0,5.7,83,0.00,,,0.00,ow4j130224,2013-03-10 21:14:00,
2013-03-10 14:19:00,44.5,39.6,30.38,SE,143,4.5,7.4,83,0.00,,,0.00,ow4j130224,2013-03-10 21:19:00,
2013-03-10 14:24:00,44.7,39.9,30.38,SSE,168,5.3,11.6,83,0.00,,,0.00,ow4j130224,2013-03-10 21:24:00,
2013-03-10 14:29:00,44.7,39.8,30.38,South,188,3.5,6.5,83,0.00,,,0.00,ow4j130224,2013-03-10 21:29:00,
2013-03-10 14:34:00,44.7,39.7,30.38,South,176,4.4,7.4,82,0.00,,,0.00,ow4j130224,2013-03-10 21:34:00,
2013-03-10 14:39:00,44.7,39.5,30.38,South,179,3.7,6.5,82,0.00,,,0.00,ow4j130224,2013-03-10 21:39:00,
2013-03-10 14:44:00,44.6,39.4,30.38,SSE,161,4.9,8.9,82,0.00,,,0.00,ow4j130224,2013-03-10 21:44:00,
2013-03-10 14:49:00,44.4,39.3,30.38,SSE,156,4.4,8.2,82,0.00,,,0.00,ow4j130224,2013-03-10 21:49:00,
2013-03-10 14:54:00,44.2,39.2,30.38,SE,146,1.7,4.9,82,0.00,,,0.00,ow4j130224,2013-03-10 21:54:00,
2013-03-10 14:59:00,44.3,39.3,30.38,South,183,2.3,5.7,82,0.00,,,0.00,ow4j130224,2013-03-10 21:59:00,
2013-03-10 15:04:00,44.4,39.6,30.38,SE,139,5.0,6.5,83,0.00,,,0.00,ow4j130224,2013-03-10 22:04:00,
2013-03-10 15:09:00,44.0,39.7,30.38,SE,128,4.6,6.5,85,0.00,,,0.00,ow4j130224,2013-03-10 22:09:00,
2013-03-10 15:14:00,43.5,39.8,30.38,SE,128,6.6,10.5,86,0.00,,,0.00,ow4j130224,2013-03-10 22:14:00,
2013-03-10 15:19:00,43.4,39.9,30.38,SSE,147,2.6,4.1,87,0.00,,,0.00,ow4j130224,2013-03-10 22:19:00,
2013-03-10 15:24:00,43.5,39.9,30.38,SE,135,6.1,8.2,87,0.00,,,0.00,ow4j130224,2013-03-10 22:24:00,
2013-03-10 15:30:00,43.3,39.8,30.38,SE,124,7.7,12.3,87,0.00,,,0.00,ow4j130224,2013-03-10 22:30:00,
2013-03-10 15:35:00,43.3,39.8,30.38,SE,143,5.6,9.0,87,0.00,,,0.00,ow4j130224,2013-03-10 22:35:00,
2013-03-10 15:40:00,43.5,40.0,30.38,SE,134,6.5,9.0,87,0.00,,,0.00,ow4j130224,2013-03-10 22:40:00,
2013-03-10 15:45:00,43.3,40.0,30.38,SE,132,6.3,9.8,88,0.00,,,0.00,ow4j130224,2013-03-10 22:45:00,
2013-03-10 15:50:00,43.0,39.9,30.38,ESE,122,7.8,10.6,88,0.00,,,0.00,ow4j130224,2013-03-10 22:50:00,
2013-03-10 15:55:00,42.8,39.9,30.39,SE,134,6.5,9.8,89,0.00,,,0.00,ow4j130224,2013-03-10 22:55:00,
2013-03-10 16:00:00,42.6,39.8,30.39,SE,131,6.1,10.6,90,0.00,,,0.00,ow4j130224,2013-03-10 23:00:00,
2013-03-10 16:05:00,42.5,39.8,30.39,SE,137,3.9,6.5,90,0.00,,,0.00,ow4j130224,2013-03-10 23:05:00,
2013-03-10 16:10:00,42.7,40.0,30.39,SE,136,8.0,10.6,90,0.00,,,0.00,ow4j130224,2013-03-10 23:10:00,
2013-03-10 16:15:00,42.8,40.3,30.39,SE,144,5.2,7.4,91,0.00,,,0.00,ow4j130224,2013-03-10 23:15:00,
2013-03-10 16:20:00,42.6,40.2,30.39,SE,132,6.6,9.8,91,0.00,,,0.00,ow4j130224,2013-03-10 23:20:00,
2013-03-10 16:25:00,42.5,40.3,30.38,SE,137,5.9,7.4,92,0.00,,,0.00,ow4j130224,2013-03-10 23:25:00,
2013-03-10 16:30:00,42.4,40.4,30.38,SE,145,7.4,9.9,93,0.00,,,0.00,ow4j130224,2013-03-10 23:30:00,
2013-03-10 16:35:00,42.4,40.5,30.38,SE,142,4.2,8.2,93,0.01,,,0.01,ow4j130224,2013-03-10 23:35:00,
2013-03-10 16:40:00,42.5,40.6,30.38,SE,137,6.7,10.6,93,0.01,,,0.01,ow4j130224,2013-03-10 23:40:00,
2013-03-10 16:45:00,42.6,40.8,30.38,SE,143,5.4,10.6,93,0.01,,,0.01,ow4j130224,2013-03-10 23:45:00,
2013-03-10 16:50:00,42.6,40.9,30.38,SE,139,4.8,8.2,94,0.01,,,0.01,ow4j130224,2013-03-10 23:50:00,
2013-03-10 16:55:00,42.6,41.0,30.38,SSE,158,3.9,8.3,94,0.01,,,0.01,ow4j130224,2013-03-10 23:55:00,
2013-03-10 17:00:00,42.7,41.1,30.38,SSE,158,4.0,8.1,94,0.01,,,0.01,ow4j130224,2013-03-11 00:00:00,
2013-03-10 17:05:00,42.8,41.2,30.38,SSE,150,4.6,6.6,94,0.01,,,0.01,ow4j130224,2013-03-11 00:05:00,
2013-03-10 17:10:00,43.0,41.3,30.38,SE,139,5.6,7.4,94,0.01,,,0.01,ow4j130224,2013-03-11 00:10:00,
2013-03-10 17:15:00,43.0,41.1,30.38,SE,136,7.0,10.6,93,0.01,,,0.01,ow4j130224,2013-03-11 00:15:00,
2013-03-10 17:20:00,43.0,41.1,30.38,SE,146,5.4,10.6,93,0.01,,,0.01,ow4j130224,2013-03-11 00:20:00,
2013-03-10 17:25:00,43.1,41.0,30.38,SSE,149,4.7,8.0,92,0.01,,,0.01,ow4j130224,2013-03-11 00:25:00,
2013-03-10 17:30:00,43.1,40.9,30.37,SSE,164,4.6,9.8,92,0.01,,,0.01,ow4j130224,2013-03-11 00:30:00,
2013-03-10 17:35:00,43.3,41.1,30.37,SSE,166,4.7,10.6,92,0.00,,,0.01,ow4j130224,2013-03-11 00:35:00,
2013-03-10 17:40:00,43.6,41.3,30.37,SE,139,5.1,7.4,91,0.00,,,0.01,ow4j130224,2013-03-11 00:40:00,
2013-03-10 17:45:00,43.5,40.9,30.37,SSE,159,6.2,11.4,90,0.00,,,0.01,ow4j130224,2013-03-11 00:45:00,
2013-03-10 17:50:00,43.3,40.4,30.37,SE,137,5.2,9.0,89,0.00,,,0.01,ow4j130224,2013-03-11 00:50:00,
2013-03-10 17:55:00,43.0,40.0,30.37,SSE,147,4.1,8.2,89,0.00,,,0.01,ow4j130224,2013-03-11 00:55:00,
2013-03-10 18:00:00,43.0,39.9,30.37,SSE,166,2.4,5.7,89,0.00,,,0.01,ow4j130224,2013-03-11 01:00:00,
2013-03-10 18:05:00,43.0,39.8,30.37,SSE,155,4.1,7.4,89,0.00,,,0.01,ow4j130224,2013-03-11 01:05:00,
2013-03-10 18:10:00,42.9,39.8,30.37,South,169,3.7,7.2,89,0.00,,,0.01,ow4j130224,2013-03-11 01:10:00,
2013-03-10 18:15:00,42.8,39.6,30.37,South,171,2.3,4.1,88,0.00,,,0.01,ow4j130224,2013-03-11 01:15:00,
2013-03-10 18:20:00,42.7,39.4,30.37,SSW,200,1.5,4.9,88,0.00,,,0.01,ow4j130224,2013-03-11 01:20:00,
2013-03-10 18:25:00,42.7,39.4,30.37,SSW,195,3.3,6.5,88,0.00,,,0.01,ow4j130224,2013-03-11 01:25:00,
2013-03-10 18:31:00,42.6,39.3,30.37,SSE,158,4.5,10.6,88,0.00,,,0.01,ow4j130224,2013-03-11 01:31:00,
2013-03-10 18:36:00,42.3,39.0,30.37,South,169,2.7,4.9,88,0.00,,,0.01,ow4j130224,2013-03-11 01:36:00,
2013-03-10 18:42:00,42.3,38.9,30.37,South,175,2.8,6.5,88,0.00,,,0.01,ow4j130224,2013-03-11 01:42:00,
2013-03-10 18:47:00,42.2,38.9,30.37,South,169,3.0,5.0,88,0.00,,,0.01,ow4j130224,2013-03-11 01:47:00,
2013-03-10 18:52:00,42.1,38.8,30.37,South,178,2.2,4.9,88,0.00,,,0.01,ow4j130224,2013-03-11 01:52:00,
2013-03-10 18:57:00,42.1,39.0,30.37,South,170,4.0,8.2,88,0.00,,,0.01,ow4j130224,2013-03-11 01:57:00,
2013-03-10 19:02:00,42.3,39.2,30.37,South,178,3.2,4.9,89,0.00,,,0.01,ow4j130224,2013-03-11 02:02:00,
2013-03-10 19:07:00,42.3,39.2,30.37,South,184,3.9,6.5,89,0.00,,,0.01,ow4j130224,2013-03-11 02:07:00,
2013-03-10 19:12:00,42.2,39.1,30.37,South,189,1.8,4.9,89,0.00,,,0.01,ow4j130224,2013-03-11 02:12:00,
2013-03-10 19:17:00,42.2,39.1,30.37,South,182,2.2,5.7,89,0.00,,,0.01,ow4j130224,2013-03-11 02:17:00,
2013-03-10 19:22:00,42.1,39.1,30.37,SSE,153,1.7,4.9,89,0.00,,,0.01,ow4j130224,2013-03-11 02:22:00,
2013-03-10 19:27:00,42.0,39.0,30.37,South,172,4.9,9.0,89,0.00,,,0.01,ow4j130224,2013-03-11 02:27:00,
2013-03-10 19:32:00,42.1,39.2,30.37,South,175,3.3,8.2,89,0.00,,,0.01,ow4j130224,2013-03-11 02:32:00,
2013-03-10 19:37:00,42.2,39.3,30.37,SSE,166,2.1,5.0,89,0.00,,,0.01,ow4j130224,2013-03-11 02:37:00,
2013-03-10 19:42:00,42.1,39.2,30.37,South,188,1.7,4.9,89,0.00,,,0.01,ow4j130224,2013-03-11 02:42:00,
2013-03-10 19:47:00,42.1,39.3,30.37,South,188,5.0,8.2,90,0.00,,,0.01,ow4j130224,2013-03-11 02:47:00,
2013-03-10 19:52:00,42.0,39.2,30.37,SSW,206,4.6,9.0,90,0.00,,,0.01,ow4j130224,2013-03-11 02:52:00,
2013-03-10 19:57:00,41.9,39.1,30.37,South,180,3.6,5.7,90,0.00,,,0.01,ow4j130224,2013-03-11 02:57:00,
2013-03-10 20:02:00,41.8,39.1,30.37,South,187,3.2,4.9,90,0.00,,,0.01,ow4j130224,2013-03-11 03:02:00,
2013-03-10 20:07:00,41.9,39.1,30.37,South,179,3.8,6.5,90,0.00,,,0.01,ow4j130224,2013-03-11 03:07:00,
2013-03-10 20:13:00,41.7,39.0,30.37,South,172,2.6,6.5,90,0.00,,,0.01,ow4j130224,2013-03-11 03:13:00,
2013-03-10 20:18:00,41.6,38.9,30.37,South,179,4.1,6.6,90,0.00,,,0.01,ow4j130224,2013-03-11 03:18:00,
2013-03-10 20:23:00,41.0,38.3,30.37,South,173,4.6,11.4,90,0.00,,,0.01,ow4j130224,2013-03-11 03:23:00,
2013-03-10 20:28:00,40.7,38.1,30.37,South,178,4.9,9.0,90,0.00,,,0.01,ow4j130224,2013-03-11 03:28:00,
2013-03-10 20:33:00,40.7,38.1,30.37,South,182,2.5,7.4,90,0.00,,,0.01,ow4j130224,2013-03-11 03:33:00,
2013-03-10 20:38:00,40.9,38.3,30.37,South,182,1.2,3.3,91,0.00,,,0.01,ow4j130224,2013-03-11 03:38:00,
2013-03-10 20:43:00,40.6,38.1,30.37,South,185,2.5,6.5,91,0.00,,,0.01,ow4j130224,2013-03-11 03:43:00,
2013-03-10 20:48:00,40.4,38.0,30.37,SSW,192,2.8,4.9,91,0.00,,,0.01,ow4j130224,2013-03-11 03:48:00,
2013-03-10 20:53:00,40.3,37.9,30.37,North,-999,0.9,3.3,91,0.00,,,0.01,ow4j130224,2013-03-11 03:53:00,
2013-03-10 20:58:00,40.0,37.7,30.37,North,-999,0.9,3.3,92,0.00,,,0.01,ow4j130224,2013-03-11 03:58:00,
2013-03-10 21:00:00,39.9,37.7,30.37,SSW,199,1.4,3.3,92,0.00,,,0.01,ow4j130224,2013-03-11 04:00:00,
2013-03-10 21:01:00,39.8,37.5,30.37,North,-999,0.8,3.3,92,0.00,,,0.01,ow4j130224,2013-03-11 04:01:00,
2013-03-10 21:07:00,39.5,37.4,30.37,SW,223,2.2,3.3,92,0.00,,,0.01,ow4j130224,2013-03-11 04:07:00,
2013-03-10 21:12:00,39.4,37.3,30.37,North,-999,1.0,3.3,92,0.00,,,0.01,ow4j130224,2013-03-11 04:12:00,
2013-03-10 21:17:00,39.6,37.6,30.37,SW,223,2.5,4.8,92,0.00,,,0.01,ow4j130224,2013-03-11 04:17:00,
2013-03-10 21:22:00,39.6,37.6,30.37,SW,228,2.9,4.1,92,0.00,,,0.01,ow4j130224,2013-03-11 04:22:00,
2013-03-10 21:27:00,39.4,37.3,30.37,SW,227,2.6,4.1,92,0.00,,,0.01,ow4j130224,2013-03-11 04:27:00,
2013-03-10 21:32:00,39.3,37.3,30.37,SW,223,2.3,3.3,92,0.00,,,0.01,ow4j130224,2013-03-11 04:32:00,
2013-03-10 21:37:00,38.9,36.9,30.37,SW,224,2.5,4.1,92,0.00,,,0.01,ow4j130224,2013-03-11 04:37:00,
2013-03-10 21:42:00,38.8,36.9,30.37,SW,227,2.2,3.3,93,0.00,,,0.01,ow4j130224,2013-03-11 04:42:00,
2013-03-10 21:47:00,39.0,37.0,30.37,SW,221,2.5,4.1,93,0.00,,,0.01,ow4j130224,2013-03-11 04:47:00,
2013-03-10 21:52:00,39.0,37.0,30.37,SW,226,3.2,4.9,93,0.00,,,0.01,ow4j130224,2013-03-11 04:52:00,
2013-03-10 21:57:00,39.0,37.2,30.37,SW,224,3.2,4.9,93,0.00,,,0.01,ow4j130224,2013-03-11 04:57:00,
2013-03-10 22:02:00,39.0,37.1,30.37,SW,227,3.3,4.9,93,0.00,,,0.01,ow4j130224,2013-03-11 05:02:00,
2013-03-10 22:07:00,38.9,37.0,30.37,SW,231,3.2,4.9,93,0.00,,,0.01,ow4j130224,2013-03-11 05:07:00,
2013-03-10 22:12:00,39.0,37.1,30.37,SW,229,3.1,4.1,93,0.00,,,0.01,ow4j130224,2013-03-11 05:12:00,
2013-03-10 22:17:00,39.1,37.3,30.37,SW,228,2.8,4.1,93,0.00,,,0.01,ow4j130224,2013-03-11 05:17:00,
2013-03-10 22:22:00,39.1,37.2,30.37,SW,226,2.7,4.9,93,0.00,,,0.01,ow4j130224,2013-03-11 05:22:00,
2013-03-10 22:27:00,39.0,37.0,30.37,SW,235,1.2,2.5,93,0.00,,,0.01,ow4j130224,2013-03-11 05:27:00,
2013-03-10 22:32:00,39.0,37.1,30.37,SW,234,2.0,3.3,93,0.00,,,0.01,ow4j130224,2013-03-11 05:32:00,
2013-03-10 22:38:00,38.9,37.1,30.37,SW,229,2.4,4.1,93,0.00,,,0.01,ow4j130224,2013-03-11 05:38:00,
2013-03-10 22:43:00,38.9,37.1,30.37,SW,231,1.9,4.1,93,0.00,,,0.01,ow4j130224,2013-03-11 05:43:00,
2013-03-10 22:48:00,38.9,37.2,30.37,SW,236,1.5,2.5,93,0.00,,,0.01,ow4j130224,2013-03-11 05:48:00,
2013-03-10 22:53:00,39.0,37.2,30.37,SW,236,1.9,4.1,93,0.00,,,0.01,ow4j130224,2013-03-11 05:53:00,
2013-03-10 22:58:00,39.1,37.3,30.37,SW,232,1.7,4.1,93,0.00,,,0.01,ow4j130224,2013-03-11 05:58:00,
2013-03-10 23:03:00,39.2,37.3,30.37,SW,221,1.7,4.1,93,0.00,,,0.01,ow4j130224,2013-03-11 06:03:00,
2013-03-10 23:08:00,39.2,37.3,30.37,North,-999,0.2,1.6,93,0.00,,,0.01,ow4j130224,2013-03-11 06:08:00,
2013-03-10 23:13:00,39.1,37.3,30.37,North,-999,1.0,3.3,93,0.00,,,0.01,ow4j130224,2013-03-11 06:13:00,
2013-03-10 23:18:00,39.3,37.6,30.37,SSW,213,2.4,4.9,93,0.00,,,0.01,ow4j130224,2013-03-11 06:18:00,
2013-03-10 23:23:00,39.6,38.1,30.37,SW,214,2.8,4.8,94,0.00,,,0.01,ow4j130224,2013-03-11 06:23:00,
2013-03-10 23:28:00,39.8,38.3,30.37,SSW,213,2.7,5.7,94,0.00,,,0.01,ow4j130224,2013-03-11 06:28:00,
2013-03-10 23:33:00,39.8,38.3,30.38,SSW,200,1.8,4.1,94,0.00,,,0.01,ow4j130224,2013-03-11 06:33:00,
2013-03-10 23:38:00,39.8,38.3,30.38,SSW,205,2.8,5.7,94,0.00,,,0.01,ow4j130224,2013-03-11 06:38:00,
2013-03-10 23:43:00,39.9,38.3,30.38,North,-999,0.8,4.1,94,0.00,,,0.01,ow4j130224,2013-03-11 06:43:00,
2013-03-10 23:48:00,39.9,38.3,30.38,SW,215,2.1,4.1,94,0.00,,,0.01,ow4j130224,2013-03-11 06:48:00,
2013-03-10 23:53:00,39.9,38.3,30.38,SW,222,1.9,4.9,94,0.00,,,0.01,ow4j130224,2013-03-11 06:53:00,
2013-03-10 23:58:00,39.7,38.0,30.38,SW,224,2.0,4.9,94,0.00,,,0.01,ow4j130224,2013-03-11 06:58:00,